Le Mars, IA

6:19 AM CST on December 04, 2016 (GMT -0600)
Le Mars Municipal

Weather History for KLRJ - April, 2013

Change the Weather History Date:

Tuesday, April 9, 2013

  Actual Average Record
Temperature  
Mean Temperature 37 °F -  
Max Temperature 44 °F 58 °F 89 °F (1977)
Min Temperature 30 °F 32 °F 14 °F (1997)
Degree Days  
Heating Degree Days 28    
Moisture  
Dew Point 34 °F    
Average Humidity 92    
Maximum Humidity 100    
Minimum Humidity 87    
Precipitation  
Precipitation 2.01 in - - ()
Sea Level Pressure  
Sea Level Pressure 29.90 in    
Wind  
Wind Speed 19 mph (NE)    
Max Wind Speed 32 mph    
Max Gust Speed 50 mph    
Visibility 5 miles    
Events Rain , Snow    
Averages and records for this station are not official NWS values.
T = Trace of Precipitation, MM = Missing Value Source: NWS Daily Summary

Daily Weather History Graph

Daily Weather History Graph

Search for Another Location

Airport or City:

Trip Planner

Search our weather history database for the weather conditions in past years. The results will help you decide how hot, cold, wet, or windy it might be!

Date:

Astronomy

Apr. 09, 2013 Rise Set
Actual Time 6:52 AM CDT 8:00 PM CDT
Civil Twilight 6:23 AM CDT 8:29 PM CDT
Nautical Twilight 5:49 AM CDT 9:04 PM CDT
Astronomical Twilight 5:12 AM CDT 9:40 PM CDT
Moon 6:16 AM CDT (4/9) 7:37 PM CDT (4/9)
Length of Visible Light 14h 05m
Length of Day
13h 07m
Waning Crescent, 1% of the Moon is Illuminated
Apr 9
Waning Crescent
Apr 10
New
Apr 18
First Quarter
Apr 25
Full
May 2
Last Quarter

Hourly Weather History & Observations

Time (CDT) Temp. Windchill Dew Point Humidity Pressure Visibility Wind Dir Wind Speed Gust Speed Precip Events Conditions
12:15 AM 44.6 °F 36.9 °F 41.0 °F 87% 29.83 in 5.0 mi ENE 18.4 mph 29.9 mph N/A   Overcast
12:35 AM 44.6 °F 36.6 °F 41.0 °F 87% 29.83 in 5.0 mi NE 19.6 mph 26.5 mph N/A   Overcast
12:55 AM 42.8 °F 34.0 °F 41.0 °F 93% 29.81 in 5.0 mi NE 20.7 mph 32.2 mph N/A   Light Drizzle
1:15 AM 42.8 °F 34.0 °F 41.0 °F 93% 29.80 in 5.0 mi NE 20.7 mph 31.1 mph N/A Rain Light Rain
1:35 AM 42.8 °F 33.5 °F 39.2 °F 87% 29.80 in 5.0 mi NE 23.0 mph 31.1 mph N/A   Overcast
1:55 AM 42.8 °F 34.3 °F 39.2 °F 87% 29.81 in 5.0 mi NE 19.6 mph 34.5 mph N/A   Overcast
2:15 AM 42.8 °F 34.3 °F 39.2 °F 87% 29.81 in 4.0 mi NE 19.6 mph 34.5 mph 0.02 in Rain Rain
2:35 AM 41.0 °F 30.7 °F 39.2 °F 93% 29.79 in 5.0 mi NE 25.3 mph 31.1 mph 0.08 in Rain Rain
2:55 AM 41.0 °F 31.4 °F 39.2 °F 93% 29.81 in 7.0 mi NE 21.9 mph 31.1 mph 0.09 in Rain Light Rain
3:15 AM 39.2 °F 29.6 °F 39.2 °F 100% 29.80 in 7.0 mi ENE 19.6 mph 33.4 mph N/A Rain Light Rain
3:35 AM 39.2 °F 28.5 °F 37.4 °F 93% 29.79 in 10.0 mi ENE 24.2 mph 29.9 mph N/A   Overcast
3:55 AM 39.2 °F 29.3 °F 37.4 °F 93% 29.80 in 7.0 mi ENE 20.7 mph 31.1 mph 0.02 in Rain Rain
4:15 AM 39.2 °F 28.7 °F 37.4 °F 93% 29.79 in 10.0 mi NE 23.0 mph 31.1 mph 0.02 in Rain Light Rain
4:35 AM 39.2 °F 29.3 °F 37.4 °F 93% 29.76 in 10.0 mi ENE 20.7 mph 32.2 mph 0.03 in   Overcast
4:55 AM 39.2 °F 28.3 °F 37.4 °F 93% 29.75 in 7.0 mi ENE 25.3 mph 33.4 mph 0.04 in Rain Light Rain
5:15 AM 39.2 °F 27.6 °F 37.4 °F 93% 29.74 in 10.0 mi ENE 28.8 mph 34.5 mph 0.05 in Rain Light Rain
5:35 AM 39.2 °F 28.0 °F 37.4 °F 93% 29.77 in 7.0 mi ENE 26.5 mph 49.5 mph 0.13 in Rain Rain
5:55 AM 37.4 °F 24.6 °F 37.4 °F 100% 29.72 in 4.0 mi NE 32.2 mph 48.3 mph 0.24 in Rain Rain
6:15 AM 37.4 °F 26.1 °F 37.4 °F 100% 29.74 in 5.0 mi NE 24.2 mph 38.0 mph 0.07 in Rain Rain
6:35 AM 37.4 °F 25.6 °F 37.4 °F 100% 29.79 in 4.0 mi NE 26.5 mph 36.8 mph 0.15 in Rain Rain
6:55 AM 37.4 °F 27.2 °F 37.4 °F 100% 29.80 in 1.5 mi ENE 19.6 mph 23.0 mph 0.41 in Rain Heavy Rain
7:15 AM 37.4 °F 27.5 °F 37.4 °F 100% 29.81 in 10.0 mi NE 18.4 mph 24.2 mph 0.05 in Rain Light Rain
7:35 AM 37.4 °F 26.6 °F 35.6 °F 93% 29.78 in 10.0 mi ENE 21.9 mph 36.8 mph 0.05 in   Overcast
7:55 AM 37.4 °F 28.5 °F 35.6 °F 93% 29.87 in 10.0 mi NNE 15.0 mph 19.6 mph 0.05 in   Overcast
8:15 AM 37.4 °F 26.9 °F 35.6 °F 93% 29.87 in 10.0 mi NNE 20.7 mph 26.5 mph N/A   Overcast
8:35 AM 37.4 °F 27.2 °F 33.8 °F 87% 29.88 in 10.0 mi NNE 19.6 mph 28.8 mph N/A   Overcast
8:55 AM 37.4 °F 26.1 °F 33.8 °F 87% 29.84 in 10.0 mi NE 24.2 mph 33.4 mph N/A   Overcast
9:15 AM 37.4 °F 27.5 °F 33.8 °F 87% 29.86 in 10.0 mi NE 18.4 mph 32.2 mph N/A   Overcast
9:35 AM 37.4 °F 27.5 °F 33.8 °F 87% 29.87 in 10.0 mi NNE 18.4 mph 26.5 mph N/A   Overcast
9:55 AM 35.6 °F 24.8 °F 32.0 °F 87% 29.89 in 10.0 mi NE 19.6 mph 31.1 mph N/A   Overcast
10:15 AM 35.6 °F 23.7 °F 32.0 °F 87% 29.90 in 10.0 mi NE 24.2 mph 32.2 mph N/A   Overcast
10:35 AM 35.6 °F 24.0 °F 33.8 °F 93% 29.90 in 4.0 mi NE 23.0 mph 34.5 mph N/A Rain Light Rain
10:55 AM 35.6 °F 23.4 °F 33.8 °F 93% 29.91 in 5.0 mi NE 25.3 mph 32.2 mph N/A Rain Light Rain
11:15 AM 35.6 °F 25.5 °F 33.8 °F 93% 29.92 in 7.0 mi NNE 17.3 mph 29.9 mph N/A   Overcast
11:35 AM 35.6 °F 26.2 °F 33.8 °F 93% 29.95 in 5.0 mi NE 15.0 mph 27.6 mph N/A   Overcast
11:55 AM 35.6 °F 25.9 °F 33.8 °F 93% 29.96 in 2.0 mi NNE 16.1 mph 24.2 mph N/A   Drizzle
12:15 PM 35.6 °F 25.9 °F 33.8 °F 93% 29.96 in 2.5 mi NNE 16.1 mph 23.0 mph N/A Rain Light Rain
12:35 PM 35.6 °F 25.9 °F 33.8 °F 93% 29.95 in 2.0 mi NNE 16.1 mph 27.6 mph N/A   Light Drizzle
12:55 PM 35.6 °F 25.9 °F 33.8 °F 93% 29.93 in 2.0 mi NNE 16.1 mph 33.4 mph N/A   Overcast
1:15 PM 35.6 °F 25.9 °F 33.8 °F 93% 29.94 in 3.0 mi NNE 16.1 mph 31.1 mph N/A   Overcast
1:35 PM 35.6 °F 26.6 °F 33.8 °F 93% 29.96 in 4.0 mi NE 13.8 mph 27.6 mph N/A   Overcast
1:55 PM 33.8 °F 23.5 °F 30.2 °F 87% 30.00 in 3.0 mi NNE 16.1 mph 20.7 mph N/A   Overcast
2:15 PM 33.8 °F 23.9 °F 30.2 °F 87% 29.98 in 3.0 mi NNE 15.0 mph 25.3 mph N/A   Overcast
2:35 PM 33.8 °F 24.3 °F 30.2 °F 87% 30.00 in 2.0 mi NNE 13.8 mph 28.8 mph N/A   Drizzle
2:55 PM 32.0 °F 20.1 °F 30.2 °F 93% 29.99 in 2.0 mi NNE 19.6 mph 23.0 mph N/A   Overcast
3:15 PM 32.0 °F 20.1 °F 30.2 °F 93% 29.95 in 3.0 mi NNE 19.6 mph 26.5 mph N/A   Light Drizzle
3:35 PM 32.0 °F 19.5 °F 30.2 °F 93% 29.94 in 3.0 mi NE 21.9 mph 28.8 mph N/A   Overcast
3:55 PM 32.0 °F 20.8 °F 28.4 °F 87% 29.95 in 4.0 mi NNE 17.3 mph 27.6 mph N/A   Overcast
4:15 PM 30.2 °F 16.8 °F 28.4 °F 93% 29.92 in 7.0 mi NNE 23.0 mph 36.8 mph N/A   Overcast
4:35 PM 30.2 °F 17.1 °F 28.4 °F 93% 29.89 in 7.0 mi NNE 21.9 mph 33.4 mph N/A   Overcast
4:55 PM 30.2 °F 20.8 °F 28.4 °F 93% 29.99 in 2.0 mi ENE 11.5 mph 31.1 mph 0.04 in Snow Light Snow
5:15 PM 30.2 °F 17.4 °F 28.4 °F 93% 29.89 in 2.0 mi NE 20.7 mph 33.4 mph 0.19 in Snow Light Snow
5:35 PM 30.2 °F 17.1 °F 28.4 °F 93% 29.81 in 10.0 mi NE 21.9 mph 32.2 mph 0.25 in   Overcast
5:55 PM 30.2 °F 17.8 °F 28.4 °F 93% 29.88 in 3.0 mi NNE 19.6 mph 29.9 mph 0.27 in Snow Snow
6:15 PM 32.0 °F 23.6 °F 28.4 °F 87% 29.98 in 7.0 mi North 10.4 mph 26.5 mph 0.08 in Snow Light Snow
6:35 PM 32.0 °F 23.6 °F 28.4 °F 87% 29.99 in 3.0 mi NNE 10.4 mph 17.3 mph 0.16 in Snow Light Snow
6:55 PM 32.0 °F 23.0 °F 30.2 °F 93% 29.94 in 2.0 mi NNE 11.5 mph 21.9 mph 0.30 in Snow Light Snow
7:15 PM 32.0 °F 22.1 °F 30.2 °F 93% 30.01 in 3.0 mi North 13.8 mph - 0.09 in Snow Light Snow
7:35 PM 32.0 °F 22.5 °F 30.2 °F 93% 30.03 in 3.0 mi North 12.7 mph 17.3 mph 0.15 in Rain Heavy Rain
7:55 PM 32.0 °F 27.5 °F 30.2 °F 93% 30.05 in 3.0 mi NNW 4.6 mph 21.9 mph 0.21 in Snow Light Snow
8:15 PM 32.0 °F 24.8 °F 30.2 °F 93% 30.00 in 4.0 mi North 8.1 mph - 0.05 in Snow Snow
8:35 PM 32.0 °F 24.2 °F 30.2 °F 93% 30.02 in 2.5 mi NNE 9.2 mph - 0.08 in Snow Snow
8:55 PM 32.0 °F 24.2 °F 30.2 °F 93% 30.01 in 3.0 mi NNE 9.2 mph - 0.12 in Snow Light Snow
9:15 PM 32.0 °F 23.0 °F 30.2 °F 93% 29.94 in 2.5 mi NE 11.5 mph - 0.05 in Rain Light Rain
9:55 PM 32.0 °F 24.2 °F 30.2 °F 93% 30.00 in 2.5 mi NNE 9.2 mph - 0.12 in Rain Rain
10:15 PM 32.0 °F - 30.2 °F 93% 30.06 in 1.8 mi Calm Calm - 0.05 in Snow Snow
10:35 PM 32.0 °F 24.8 °F 30.2 °F 93% 29.97 in 1.8 mi NE 8.1 mph - 0.10 in   Overcast
10:55 PM 32.0 °F 24.8 °F 30.2 °F 93% 29.96 in 5.0 mi NNE 8.1 mph 18.4 mph 0.10 in   Overcast
11:15 PM 32.0 °F 26.4 °F 30.2 °F 93% 30.00 in 5.0 mi North 5.8 mph - N/A   Overcast
11:35 PM 32.0 °F 27.5 °F 30.2 °F 93% 30.00 in 5.0 mi NNE 4.6 mph - N/A   Overcast
11:55 PM 32.0 °F 27.5 °F 30.2 °F 93% 30.00 in 2.0 mi NNE 4.6 mph - N/A   Overcast